Location: Crescent
(42.8242°N, 73.7329°W)
Time: 20:55:33
(UTC+00:00)

SR - Pass Details

Date: 21 February 2026
Orbit: 573 x 848 km, 66.7° (Epoch: 6 March)

Event Time Altitude Azimuth Distance (km) Brightness Sun altitude
Rises 10:06:51 0° 259° (W) 2,793 - -18.4°
Reaches altitude 10° 10:09:51 10° 282° (WNW) 1,924 - -17.8°
Maximum altitude 10:12:27 15° 320° (NW) 1,630 - -17.4°
Exits shadow 10:12:50 15° 326° (NW) 1,644 ? -17.3°
Drops below altitude 10° 10:15:07 10° 357° (N) 1,998 ? -16.9°
Sets 10:18:21 0° 20° (NNE) 2,965 ? -16.3°
